| time (UTC) | temp F | wind direction | speed knots | gust knots | rain 1hr in | rain 24hr in | rain mn in | humidity % | barometer mb |
| 20260906185936 | 72 | 91 | 0.9 | 1.7 | 0.00 | 0.00 | 0.00 | 59 | 1018.1 |
| 20260906185435 | 70 | 203 | 1.7 | 1.7 | 0.00 | 0.00 | 0.00 | 58 | 1018.0 |
| 20260906184934 | 71 | 321 | 4.3 | 7.0 | 0.00 | 0.00 | 0.00 | 57 | 1017.8 |
| 20260906184430 | 73 | 116 | 1.7 | 2.6 | 0.00 | 0.00 | 0.00 | 57 | 1017.8 |
| 20260906183925 | 73 | 71 | 5.2 | 6.1 | 0.00 | 0.00 | 0.00 | 57 | 1017.9 |
| 20260906183422 | 71 | 25 | 2.6 | 2.6 | 0.00 | 0.00 | 0.00 | 59 | 1018.3 |
| 20260906182917 | 72 | 27 | 2.6 | 5.2 | 0.00 | 0.00 | 0.00 | 58 | 1018.1 |
| 20260906182412 | 74 | 178 | 0.9 | 0.9 | 0.00 | 0.00 | 0.00 | 54 | 1018.1 |
| 20260906181908 | 74 | 29 | 2.6 | 2.6 | 0.00 | 0.00 | 0.00 | 58 | 1018.0 |
| 20260906181404 | 72 | 125 | 1.7 | 1.7 | 0.00 | 0.00 | 0.00 | 57 | 1017.9 |
| 20260906180859 | 72 | 27 | 2.6 | 4.3 | 0.00 | 0.00 | 0.00 | 57 | 1017.8 |
| 20260906180354 | 72 | 191 | 0.9 | 0.9 | 0.00 | 0.00 | 0.00 | 56 | 1017.9 |
| 20260906175851 | 72 | 216 | 2.6 | 2.6 | 0.00 | 0.00 | 0.00 | 56 | 1017.9 |
| 20260906175346 | 73 | 233 | 2.6 | 2.6 | 0.00 | 0.00 | 0.00 | 56 | 1017.9 |
| 20260906174845 | 73 | 85 | 0.9 | 1.7 | 0.00 | 0.00 | 0.00 | 57 | 1018.0 |
| 20260906174345 | 71 | 183 | 0.0 | 0.9 | 0.00 | 0.00 | 0.00 | 60 | 1017.6 |
| 20260906173840 | 71 | 251 | 0.9 | 1.7 | 0.00 | 0.00 | 0.00 | 60 | 1017.9 |
| 20260906173336 | 71 | 329 | 2.6 | 2.6 | 0.00 | 0.00 | 0.00 | 61 | 1018.0 |
| 20260906172834 | 71 | 323 | 3.5 | 5.2 | 0.00 | 0.00 | 0.00 | 58 | 1017.9 |
| 20260906172331 | 71 | 59 | 1.7 | 2.6 | 0.00 | 0.00 | 0.00 | 61 | 1018.0 |
| 20260906171826 | 72 | 277 | 0.9 | 1.7 | 0.00 | 0.00 | 0.00 | 60 | 1018.0 |
| 20260906171321 | 73 | 354 | 2.6 | 2.6 | 0.00 | 0.00 | 0.00 | 61 | 1018.1 |
| 20260906170816 | 74 | 141 | 0.0 | 0.9 | 0.00 | 0.00 | 0.00 | 60 | 1018.2 |
| 20260906170312 | 72 | 150 | 0.9 | 0.9 | 0.00 | 0.00 | 0.00 | 59 | 1018.1 |
| 20260906165808 | 71 | 194 | 0.9 | 1.7 | 0.00 | 0.00 | 0.00 | 61 | 1018.2 |
| 20260906165308 | 72 | 246 | 6.1 | 7.8 | 0.00 | 0.00 | 0.00 | 59 | 1018.0 |
| 20260906164802 | 70 | 80 | 1.7 | 1.7 | 0.00 | 0.00 | 0.00 | 62 | 1018.1 |
| 20260906164256 | 71 | 206 | 1.7 | 1.7 | 0.00 | 0.00 | 0.00 | 63 | 1018.1 |
| 20260906163752 | 72 | 126 | 0.0 | 0.9 | 0.00 | 0.00 | 0.00 | 61 | 1018.3 |
| 20260906163249 | 72 | 192 | 0.9 | 0.9 | 0.00 | 0.00 | 0.00 | 60 | 1018.2 |
| 20260906162746 | 73 | 203 | 0.9 | 0.9 | 0.00 | 0.00 | 0.00 | 61 | 1018.4 |
| 20260906162240 | 71 | 95 | 0.9 | 1.7 | 0.00 | 0.00 | 0.00 | 61 | 1018.1 |
| 20260906161740 | 71 | 26 | 4.3 | 5.2 | 0.00 | 0.00 | 0.00 | 62 | 1018.4 |
| 20260906161239 | 73 | 104 | 3.5 | 5.2 | 0.00 | 0.00 | 0.00 | 59 | 1018.3 |
| 20260906160738 | 74 | 211 | 1.7 | 1.7 | 0.00 | 0.00 | 0.00 | 58 | 1018.4 |
| 20260906160238 | 72 | 136 | 0.0 | 0.9 | 0.00 | 0.00 | 0.00 | 63 | 1018.2 |
| 20260906155735 | 73 | 265 | 1.7 | 1.7 | 0.00 | 0.00 | 0.00 | 60 | 1018.4 |
| 20260906155231 | 72 | 196 | 0.9 | 1.7 | 0.00 | 0.00 | 0.00 | 63 | 1018.3 |
| 20260906154726 | 72 | 251 | 4.3 | 5.2 | 0.00 | 0.00 | 0.00 | 63 | 1018.3 |
| 20260906154221 | 72 | 266 | 1.7 | 1.7 | 0.00 | 0.00 | 0.00 | 66 | 1018.4 |
| 20260906153719 | 72 | 200 | 1.7 | 2.6 | 0.00 | 0.00 | 0.00 | 64 | 1018.1 |
| 20260906153214 | 71 | 285 | 3.5 | 4.3 | 0.00 | 0.00 | 0.00 | 64 | 1018.4 |
| 20260906152709 | 71 | 317 | 2.6 | 4.3 | 0.00 | 0.00 | 0.00 | 65 | 1018.4 |
| 20260906152203 | 71 | 54 | 1.7 | 1.7 | 0.00 | 0.00 | 0.00 | 69 | 1018.1 |
| 20260906151658 | 70 | 79 | 1.7 | 1.7 | 0.00 | 0.00 | 0.00 | 68 | 1018.1 |
| 20260906151153 | 71 | 228 | 2.6 | 4.3 | 0.00 | 0.00 | 0.00 | 70 | 1018.2 |
| 20260906150649 | 70 | 187 | 1.7 | 1.7 | 0.00 | 0.00 | 0.00 | 71 | 1018.4 |
| 20260906150144 | 69 | 194 | 2.6 | 2.6 | 0.00 | 0.00 | 0.00 | 74 | 1018.1 |
| 20260906145643 | 67 | 289 | 2.6 | 4.3 | 0.00 | 0.00 | 0.00 | 76 | 1018.3 |
| 20260906145137 | 67 | 314 | 3.5 | 4.3 | 0.00 | 0.00 | 0.00 | 77 | 1018.2 |
| 20260906144632 | 67 | 281 | 2.6 | 2.6 | 0.00 | 0.00 | 0.00 | 77 | 1018.3 |
| 20260906144127 | 67 | 231 | 5.2 | 6.1 | 0.00 | 0.00 | 0.00 | 77 | 1018.3 |
| 20260906143626 | 67 | 233 | 0.9 | 1.7 | 0.00 | 0.00 | 0.00 | 77 | 1018.2 |
| 20260906143124 | 67 | 236 | 1.7 | 1.7 | 0.00 | 0.00 | 0.00 | 78 | 1018.2 |
| 20260906142623 | 67 | 20 | 1.7 | 1.7 | 0.00 | 0.00 | 0.00 | 78 | 1018.0 |
| 20260906142118 | 66 | 233 | 2.6 | 2.6 | 0.00 | 0.00 | 0.00 | 78 | 1018.2 |
| 20260906141617 | 66 | 220 | 2.6 | 4.3 | 0.00 | 0.00 | 0.00 | 79 | 1018.2 |
| 20260906141113 | 66 | 274 | 3.5 | 4.3 | 0.00 | 0.00 | 0.00 | 80 | 1018.0 |
| 20260906140611 | 66 | 272 | 2.6 | 4.3 | 0.00 | 0.00 | 0.00 | 81 | 1018.2 |
| 20260906140107 | 65 | 277 | 3.5 | 5.2 | 0.00 | 0.00 | 0.00 | 84 | 1018.3 |
| 20260906135603 | 65 | 171 | 0.0 | 0.9 | 0.00 | 0.00 | 0.00 | 85 | 1018.1 |
| 20260906135100 | 64 | 304 | 1.7 | 2.6 | 0.00 | 0.00 | 0.00 | 85 | 1018.4 |
| 20260906134555 | 65 | 235 | 1.7 | 1.7 | 0.00 | 0.00 | 0.00 | 85 | 1018.3 |
| 20260906134055 | 65 | 286 | 3.5 | 4.3 | 0.00 | 0.00 | 0.00 | 84 | 1018.2 |
| 20260906133550 | 65 | 291 | 2.6 | 2.6 | 0.00 | 0.00 | 0.00 | 84 | 1018.3 |
| 20260906133046 | 64 | 312 | 2.6 | 2.6 | 0.00 | 0.00 | 0.00 | 88 | 1018.1 |
| 20260906132541 | 63 | 25 | 2.6 | 4.3 | 0.00 | 0.00 | 0.00 | 89 | 1018.3 |
| 20260906132036 | 63 | 15 | 1.7 | 2.6 | 0.00 | 0.00 | 0.00 | 91 | 1018.3 |
| 20260906131532 | 62 | 226 | 2.6 | 2.6 | 0.00 | 0.00 | 0.00 | 92 | 1018.2 |
| 20260906131027 | 62 | 173 | 0.0 | 0.9 | 0.00 | 0.00 | 0.00 | 93 | 1018.0 |
| 20260906130526 | 62 | 197 | 0.9 | 0.9 | 0.00 | 0.00 | 0.00 | 94 | 1018.2 |
| 20260906130021 | 62 | 187 | 1.7 | 1.7 | 0.00 | 0.00 | 0.00 | 95 | 1017.9 |
| 20260906125519 | 62 | 151 | 0.0 | 0.0 | 0.00 | 0.00 | 0.00 | 95 | 1018.2 |
| 20260906125013 | 61 | 168 | 0.0 | 0.0 | 0.00 | 0.00 | 0.00 | 95 | 1018.2 |
| 20260906124509 | 60 | 189 | 1.7 | 1.7 | 0.00 | 0.00 | 0.00 | 95 | 1018.0 |
| 20260906124003 | 60 | 79 | 0.9 | 1.7 | 0.00 | 0.00 | 0.00 | 95 | 1018.0 |
| 20260906123456 | 60 | 161 | 0.0 | 0.0 | 0.00 | 0.00 | 0.00 | 95 | 1018.0 |
| 20260906122951 | 60 | 132 | 0.9 | 0.9 | 0.00 | 0.00 | 0.00 | 95 | 1017.9 |
| 20260906122446 | 60 | 171 | 0.0 | 0.0 | 0.00 | 0.00 | 0.00 | 95 | 1017.7 |
| 20260906121942 | 60 | 175 | 0.0 | 0.9 | 0.00 | 0.00 | 0.00 | 95 | 1017.7 |
| 20260906121438 | 60 | 196 | 0.0 | 0.9 | 0.00 | 0.00 | 0.00 | 95 | 1017.9 |
| 20260906120934 | 60 | 180 | 0.0 | 0.0 | 0.00 | 0.00 | 0.00 | 95 | 1017.8 |
| 20260906120430 | 60 | 184 | 0.9 | 1.7 | 0.00 | 0.00 | 0.00 | 95 | 1017.7 |
| 20260906115926 | 60 | 214 | 0.0 | 0.9 | 0.00 | 0.00 | 0.00 | 95 | 1017.7 |
| 20260906115421 | 60 | 202 | 0.0 | 0.0 | 0.00 | 0.00 | 0.00 | 95 | 1017.6 |
| 20260906114921 | 60 | 177 | 0.0 | 0.0 | 0.00 | 0.00 | 0.00 | 95 | 1017.7 |
| 20260906114415 | 60 | 151 | 0.0 | 0.0 | 0.00 | 0.00 | 0.00 | 95 | 1017.7 |
| 20260906113911 | 60 | 152 | 0.0 | 0.0 | 0.00 | 0.00 | 0.00 | 95 | 1017.7 |
| 20260906113409 | 60 | 148 | 0.0 | 0.0 | 0.00 | 0.00 | 0.00 | 95 | 1017.5 |
| 20260906112905 | 59 | 184 | 0.0 | 0.0 | 0.00 | 0.00 | 0.00 | 95 | 1017.5 |
| 20260906112401 | 60 | 184 | 0.0 | 0.0 | 0.00 | 0.00 | 0.00 | 95 | 1017.6 |
| 20260906111856 | 59 | 184 | 0.0 | 0.0 | 0.00 | 0.00 | 0.00 | 95 | 1017.4 |
| 20260906111356 | 59 | 184 | 0.0 | 0.0 | 0.00 | 0.00 | 0.00 | 95 | 1017.3 |
| 20260906110850 | 59 | 184 | 0.0 | 0.0 | 0.00 | 0.00 | 0.00 | 95 | 1017.4 |
| 20260906110346 | 58 | 184 | 0.0 | 0.0 | 0.00 | 0.00 | 0.00 | 95 | 1017.1 |
| 20260906105845 | 58 | 184 | 0.0 | 0.0 | 0.00 | 0.00 | 0.00 | 95 | 1017.3 |
| 20260906105341 | 58 | 184 | 0.0 | 0.0 | 0.00 | 0.00 | 0.00 | 95 | 1017.2 |
| 20260906104837 | 58 | 184 | 0.0 | 0.0 | 0.00 | 0.00 | 0.00 | 95 | 1017.2 |
| 20260906104335 | 58 | 184 | 0.0 | 0.0 | 0.00 | 0.00 | 0.00 | 95 | 1017.0 |
| 20260906103834 | 58 | 184 | 0.0 | 0.0 | 0.00 | 0.00 | 0.00 | 95 | 1017.1 |
| 20260906103332 | 58 | 183 | 0.0 | 0.0 | 0.00 | 0.00 | 0.00 | 95 | 1016.9 |
| 20260906102829 | 58 | 183 | 0.0 | 0.0 | 0.00 | 0.00 | 0.00 | 95 | 1017.0 |
| 20260906102327 | 58 | 182 | 0.0 | 0.0 | 0.00 | 0.00 | 0.00 | 95 | 1017.0 |
| 20260906101823 | 58 | 180 | 0.0 | 0.0 | 0.00 | 0.00 | 0.00 | 95 | 1016.9 |
| 20260906101318 | 58 | 179 | 0.0 | 0.0 | 0.00 | 0.00 | 0.00 | 95 | 1016.8 |
| 20260906100813 | 58 | 176 | 0.0 | 0.0 | 0.00 | 0.00 | 0.00 | 95 | 1017.0 |
| 20260906100312 | 58 | 172 | 0.0 | 0.0 | 0.00 | 0.00 | 0.00 | 95 | 1016.8 |
| 20260906095808 | 58 | 178 | 0.0 | 0.0 | 0.00 | 0.00 | 0.00 | 95 | 1016.8 |
| 20260906095306 | 58 | 183 | 0.0 | 0.0 | 0.00 | 0.00 | 0.00 | 95 | 1016.4 |
| 20260906094802 | 58 | 183 | 0.0 | 0.0 | 0.00 | 0.00 | 0.00 | 95 | 1016.5 |
| 20260906094257 | 58 | 185 | 0.0 | 0.0 | 0.00 | 0.00 | 0.00 | 95 | 1016.5 |
| 20260906093754 | 58 | 180 | 0.0 | 0.0 | 0.00 | 0.00 | 0.00 | 95 | 1016.2 |
| 20260906093249 | 57 | 187 | 0.0 | 0.0 | 0.00 | 0.00 | 0.00 | 95 | 1016.3 |
| 20260906092743 | 57 | 186 | 0.9 | 0.9 | 0.00 | 0.00 | 0.00 | 95 | 1016.3 |
| 20260906092238 | 57 | 186 | 0.0 | 0.0 | 0.00 | 0.00 | 0.00 | 95 | 1016.2 |
| 20260906091734 | 57 | 182 | 0.0 | 0.0 | 0.00 | 0.00 | 0.00 | 95 | 1016.1 |
| 20260906091230 | 57 | 184 | 0.0 | 0.0 | 0.00 | 0.00 | 0.00 | 95 | 1016.3 |
| 20260906090727 | 57 | 182 | 0.0 | 0.0 | 0.00 | 0.00 | 0.00 | 95 | 1016.0 |
| 20260906090225 | 57 | 193 | 0.9 | 0.9 | 0.00 | 0.00 | 0.00 | 95 | 1016.0 |
| 20260906085724 | 57 | 182 | 0.0 | 0.0 | 0.00 | 0.00 | 0.00 | 95 | 1016.1 |
| 20260906085223 | 57 | 185 | 0.0 | 0.0 | 0.00 | 0.00 | 0.00 | 95 | 1015.9 |
| 20260906084718 | 58 | 187 | 0.0 | 0.0 | 0.00 | 0.00 | 0.00 | 95 | 1016.0 |
| 20260906084212 | 58 | 194 | 0.0 | 0.0 | 0.00 | 0.00 | 0.00 | 95 | 1015.9 |
| 20260906083708 | 57 | 191 | 0.0 | 0.0 | 0.00 | 0.00 | 0.00 | 95 | 1015.9 |
| 20260906083158 | 57 | 179 | 0.0 | 0.0 | 0.00 | 0.00 | 0.00 | 95 | 1015.7 |
| 20260906082652 | 57 | 160 | 0.0 | 0.0 | 0.00 | 0.00 | 0.00 | 95 | 1015.7 |
| 20260906082148 | 56 | 165 | 0.0 | 0.0 | 0.00 | 0.00 | 0.00 | 95 | 1015.6 |
| 20260906081643 | 56 | 165 | 0.0 | 0.0 | 0.00 | 0.00 | 0.00 | 95 | 1015.5 |
| 20260906081138 | 56 | 166 | 0.0 | 0.0 | 0.00 | 0.00 | 0.00 | 95 | 1015.6 |
| 20260906080635 | 56 | 166 | 0.0 | 0.0 | 0.00 | 0.00 | 0.00 | 95 | 1015.4 |
| 20260906080130 | 56 | 166 | 0.0 | 0.0 | 0.00 | 0.00 | 0.00 | 95 | 1015.5 |
| 20260906075625 | 56 | 166 | 0.0 | 0.0 | 0.00 | 0.00 | 0.00 | 95 | 1015.5 |
| 20260906075119 | 56 | 166 | 0.0 | 0.0 | 0.00 | 0.00 | 0.00 | 95 | 1015.4 |
| 20260906074615 | 56 | 166 | 0.0 | 0.0 | 0.00 | 0.00 | 0.00 | 95 | 1015.7 |
| 20260906074113 | 56 | 166 | 0.0 | 0.0 | 0.00 | 0.00 | 0.00 | 95 | 1015.5 |
| 20260906073608 | 56 | 166 | 0.0 | 0.0 | 0.00 | 0.00 | 0.00 | 95 | 1015.6 |
| 20260906073104 | 56 | 166 | 0.0 | 0.0 | 0.00 | 0.00 | 0.00 | 95 | 1015.6 |
| 20260906072559 | 56 | 166 | 0.0 | 0.0 | 0.00 | 0.00 | 0.00 | 95 | 1015.5 |
| 20260906072055 | 57 | 166 | 0.0 | 0.0 | 0.00 | 0.00 | 0.00 | 95 | 1015.5 |
| 20260906071551 | 57 | 166 | 0.0 | 0.0 | 0.00 | 0.00 | 0.00 | 95 | 1015.7 |
| 20260906071045 | 57 | 165 | 0.0 | 0.0 | 0.00 | 0.00 | 0.00 | 95 | 1015.8 |
| 20260906070542 | 57 | 166 | 0.0 | 0.0 | 0.00 | 0.00 | 0.00 | 95 | 1015.9 |
| 20260906070037 | 57 | 165 | 0.0 | 0.0 | 0.00 | 0.00 | 0.00 | 95 | 1015.6 |
| 20260906065536 | 56 | 165 | 0.0 | 0.0 | 0.00 | 0.00 | 0.00 | 95 | 1015.6 |
| 20260906065033 | 56 | 166 | 0.0 | 0.0 | 0.00 | 0.00 | 0.00 | 95 | 1015.6 |
| 20260906064528 | 57 | 166 | 0.0 | 0.0 | 0.00 | 0.00 | 0.00 | 95 | 1015.6 |
| 20260906064023 | 57 | 166 | 0.0 | 0.0 | 0.00 | 0.00 | 0.00 | 95 | 1015.4 |
| 20260906063519 | 57 | 172 | 0.0 | 0.0 | 0.00 | 0.00 | 0.00 | 95 | 1015.8 |
| 20260906063015 | 57 | 172 | 0.0 | 0.0 | 0.00 | 0.00 | 0.00 | 95 | 1015.7 |
| 20260906062509 | 56 | 173 | 0.0 | 0.0 | 0.00 | 0.00 | 0.00 | 95 | 1015.8 |
| 20260906062004 | 56 | 173 | 0.0 | 0.0 | 0.00 | 0.00 | 0.00 | 95 | 1015.9 |
| 20260906061459 | 56 | 172 | 0.0 | 0.0 | 0.00 | 0.00 | 0.00 | 95 | 1015.7 |
| 20260906060954 | 56 | 172 | 0.0 | 0.0 | 0.00 | 0.00 | 0.00 | 95 | 1016.0 |
| 20260906060451 | 56 | 173 | 0.0 | 0.0 | 0.00 | 0.00 | 0.00 | 95 | 1015.9 |
| 20260906055947 | 56 | 173 | 0.0 | 0.0 | 0.00 | 0.00 | 0.00 | 95 | 1015.9 |
| 20260906055443 | 57 | 173 | 0.0 | 0.0 | 0.00 | 0.00 | 0.00 | 95 | 1015.8 |
| 20260906054938 | 57 | 173 | 0.0 | 0.0 | 0.00 | 0.00 | 0.00 | 95 | 1016.0 |
| 20260906054433 | 56 | 173 | 0.0 | 0.0 | 0.00 | 0.00 | 0.00 | 95 | 1015.9 |
| 20260906053928 | 56 | 173 | 0.0 | 0.0 | 0.00 | 0.00 | 0.00 | 95 | 1015.8 |
| 20260906053424 | 56 | 173 | 0.0 | 0.0 | 0.00 | 0.00 | 0.00 | 95 | 1016.0 |
| 20260906052920 | 57 | 172 | 0.0 | 0.0 | 0.00 | 0.00 | 0.00 | 95 | 1015.9 |
| 20260906052416 | 57 | 173 | 0.0 | 0.0 | 0.00 | 0.00 | 0.00 | 95 | 1015.9 |
| 20260906051913 | 57 | 172 | 0.0 | 0.0 | 0.00 | 0.00 | 0.00 | 95 | 1015.7 |
| 20260906051413 | 57 | 154 | 0.0 | 0.0 | 0.00 | 0.00 | 0.00 | 95 | 1016.0 |
| 20260906050908 | 57 | 153 | 0.0 | 0.0 | 0.00 | 0.00 | 0.00 | 95 | 1016.2 |
| 20260906050403 | 57 | 153 | 0.0 | 0.0 | 0.00 | 0.00 | 0.00 | 95 | 1015.9 |
| 20260906045902 | 57 | 154 | 0.0 | 0.0 | 0.00 | 0.00 | 0.00 | 95 | 1015.7 |
| 20260906045401 | 57 | 154 | 0.0 | 0.0 | 0.00 | 0.00 | 0.00 | 95 | 1016.0 |
| 20260906044857 | 57 | 153 | 0.0 | 0.0 | 0.00 | 0.00 | 0.00 | 95 | 1015.8 |
| 20260906044352 | 57 | 153 | 0.0 | 0.0 | 0.00 | 0.00 | 0.00 | 95 | 1015.5 |
| 20260906043848 | 57 | 155 | 0.0 | 0.0 | 0.00 | 0.00 | 0.00 | 95 | 1015.9 |
| 20260906043343 | 57 | 155 | 0.0 | 0.0 | 0.00 | 0.00 | 0.00 | 95 | 1016.0 |
| 20260906042838 | 57 | 155 | 0.0 | 0.0 | 0.00 | 0.00 | 0.00 | 95 | 1015.8 |
| 20260906042337 | 57 | 156 | 0.0 | 0.0 | 0.00 | 0.00 | 0.00 | 95 | 1015.9 |
| 20260906041833 | 57 | 155 | 0.0 | 0.0 | 0.00 | 0.00 | 0.00 | 95 | 1015.9 |
| 20260906041329 | 57 | 155 | 0.0 | 0.0 | 0.00 | 0.00 | 0.00 | 95 | 1015.8 |
| 20260906040828 | 57 | 155 | 0.0 | 0.0 | 0.00 | 0.00 | 0.00 | 95 | 1015.7 |
| 20260906040324 | 58 | 157 | 0.0 | 0.0 | 0.00 | 0.00 | 0.00 | 95 | 1015.9 |
| 20260906035819 | 57 | 156 | 0.0 | 0.0 | 0.00 | 0.00 | 0.00 | 95 | 1016.1 |
| 20260906035314 | 58 | 155 | 0.0 | 0.0 | 0.00 | 0.00 | 0.00 | 95 | 1015.8 |
| 20260906034809 | 58 | 159 | 0.0 | 0.0 | 0.00 | 0.00 | 0.00 | 95 | 1015.7 |
| 20260906034304 | 58 | 180 | 0.0 | 0.0 | 0.00 | 0.00 | 0.00 | 95 | 1015.9 |
| 20260906033800 | 59 | 182 | 0.0 | 0.0 | 0.00 | 0.00 | 0.00 | 95 | 1015.9 |
| 20260906033259 | 59 | 165 | 0.0 | 0.0 | 0.00 | 0.00 | 0.00 | 95 | 1015.7 |
| 20260906032756 | 59 | 185 | 0.0 | 0.0 | 0.00 | 0.00 | 0.00 | 95 | 1015.6 |
| 20260906032256 | 59 | 189 | 0.0 | 0.0 | 0.00 | 0.00 | 0.00 | 95 | 1015.7 |
| 20260906031751 | 59 | 193 | 0.0 | 0.0 | 0.00 | 0.00 | 0.00 | 95 | 1015.8 |
| 20260906031247 | 59 | 191 | 0.0 | 0.0 | 0.00 | 0.00 | 0.00 | 95 | 1015.7 |
| 20260906030741 | 59 | 191 | 0.0 | 0.0 | 0.00 | 0.00 | 0.00 | 95 | 1015.6 |
| 20260906030236 | 59 | 190 | 0.0 | 0.0 | 0.00 | 0.00 | 0.00 | 95 | 1015.6 |
| 20260906025735 | 59 | 188 | 0.0 | 0.0 | 0.00 | 0.00 | 0.00 | 95 | 1015.7 |
| 20260906025235 | 59 | 189 | 0.0 | 0.0 | 0.00 | 0.00 | 0.00 | 95 | 1015.6 |
| 20260906024734 | 59 | 190 | 0.0 | 0.0 | 0.00 | 0.00 | 0.00 | 94 | 1015.8 |
| 20260906024228 | 59 | 191 | 0.0 | 0.0 | 0.00 | 0.00 | 0.00 | 94 | 1015.4 |
| 20260906023724 | 59 | 189 | 0.0 | 0.0 | 0.00 | 0.00 | 0.00 | 94 | 1015.5 |
| 20260906023219 | 59 | 189 | 0.0 | 0.0 | 0.00 | 0.00 | 0.00 | 94 | 1015.5 |
| 20260906022715 | 59 | 189 | 0.0 | 0.0 | 0.00 | 0.00 | 0.00 | 94 | 1015.5 |
| 20260906022210 | 60 | 189 | 0.0 | 0.0 | 0.00 | 0.00 | 0.00 | 93 | 1015.7 |
| 20260906021705 | 60 | 189 | 0.0 | 0.0 | 0.00 | 0.00 | 0.00 | 93 | 1015.5 |
| 20260906021203 | 60 | 189 | 0.0 | 0.0 | 0.00 | 0.00 | 0.00 | 93 | 1015.3 |
| 20260906020658 | 60 | 188 | 0.0 | 0.0 | 0.00 | 0.00 | 0.00 | 93 | 1015.5 |
| 20260906020148 | 60 | 186 | 0.0 | 0.0 | 0.00 | 0.00 | 0.00 | 93 | 1015.3 |
| 20260906015642 | 60 | 182 | 0.0 | 0.0 | 0.00 | 0.00 | 0.00 | 92 | 1015.4 |
| 20260906015140 | 61 | 181 | 0.0 | 0.0 | 0.00 | 0.00 | 0.00 | 92 | 1015.3 |
| 20260906014635 | 61 | 175 | 0.9 | 0.9 | 0.00 | 0.00 | 0.00 | 92 | 1015.5 |
| 20260906014131 | 61 | 189 | 0.0 | 0.0 | 0.00 | 0.00 | 0.00 | 92 | 1015.3 |
| 20260906013627 | 61 | 152 | 0.0 | 0.0 | 0.00 | 0.00 | 0.00 | 92 | 1015.2 |
| 20260906013122 | 61 | 149 | 0.9 | 0.9 | 0.00 | 0.00 | 0.00 | 92 | 1015.1 |
| 20260906012617 | 61 | 155 | 0.0 | 0.0 | 0.00 | 0.00 | 0.00 | 91 | 1015.1 |
| 20260906012117 | 61 | 148 | 0.0 | 0.9 | 0.00 | 0.00 | 0.00 | 91 | 1015.1 |
| 20260906011612 | 61 | 134 | 0.0 | 0.0 | 0.00 | 0.00 | 0.00 | 91 | 1015.3 |
| 20260906011107 | 61 | 157 | 0.0 | 0.0 | 0.00 | 0.00 | 0.00 | 91 | 1015.2 |
| 20260906010603 | 61 | 150 | 0.0 | 0.0 | 0.00 | 0.00 | 0.00 | 90 | 1015.1 |
| 20260906010059 | 61 | 134 | 0.0 | 0.9 | 0.00 | 0.00 | 0.00 | 90 | 1015.1 |
| 20260906005558 | 62 | 118 | 0.9 | 0.9 | 0.00 | 0.00 | 0.00 | 90 | 1015.0 |
| 20260906005056 | 62 | 187 | 0.0 | 0.0 | 0.00 | 0.00 | 0.00 | 89 | 1015.0 |
| 20260906004551 | 62 | 168 | 0.0 | 0.9 | 0.00 | 0.00 | 0.00 | 89 | 1014.9 |
| 20260906004045 | 63 | 191 | 0.0 | 0.0 | 0.00 | 0.00 | 0.00 | 89 | 1014.8 |
| 20260906003540 | 63 | 190 | 0.0 | 0.0 | 0.00 | 0.00 | 0.00 | 88 | 1014.8 |
| 20260906003036 | 63 | 193 | 0.9 | 0.9 | 0.00 | 0.00 | 0.00 | 88 | 1014.7 |
| 20260906002531 | 63 | 153 | 0.9 | 0.9 | 0.00 | 0.00 | 0.00 | 87 | 1014.6 |
| 20260906002025 | 64 | 139 | 0.9 | 0.9 | 0.00 | 0.00 | 0.00 | 87 | 1015.0 |
| 20260906001521 | 64 | 197 | 0.0 | 0.0 | 0.00 | 0.00 | 0.00 | 86 | 1014.8 |
| 20260906001016 | 64 | 197 | 0.0 | 0.0 | 0.00 | 0.00 | 0.00 | 86 | 1014.7 |
| 20260906000512 | 65 | 197 | 0.0 | 0.0 | 0.00 | 0.00 | 0.00 | 85 | 1014.6 |
| 20260906000006 | 65 | 196 | 0.0 | 0.0 | 0.00 | 0.00 | 0.00 | 84 | 1014.6 |
| 20260905235500 | 65 | 196 | 0.0 | 0.0 | 0.00 | 0.00 | 0.00 | 84 | 1014.7 |
| 20260905234955 | 66 | 196 | 0.0 | 0.0 | 0.00 | 0.00 | 0.00 | 83 | 1014.7 |
| 20260905234451 | 66 | 196 | 0.0 | 0.0 | 0.00 | 0.00 | 0.00 | 82 | 1014.7 |
| 20260905233950 | 66 | 196 | 0.0 | 0.0 | 0.00 | 0.00 | 0.00 | 82 | 1014.7 |
| 20260905233446 | 67 | 195 | 0.0 | 0.0 | 0.00 | 0.00 | 0.00 | 81 | 1014.5 |
| 20260905232945 | 67 | 195 | 0.0 | 0.0 | 0.00 | 0.00 | 0.00 | 80 | 1014.7 |
| 20260905232441 | 67 | 146 | 0.0 | 0.0 | 0.00 | 0.00 | 0.00 | 79 | 1014.7 |
| 20260905231937 | 67 | 131 | 0.9 | 0.9 | 0.00 | 0.00 | 0.00 | 79 | 1014.7 |
| 20260905231432 | 68 | 144 | 0.9 | 0.9 | 0.00 | 0.00 | 0.00 | 78 | 1014.7 |
| 20260905230928 | 68 | 146 | 0.9 | 0.9 | 0.00 | 0.00 | 0.00 | 77 | 1014.7 |
| 20260905230427 | 68 | 31 | 2.6 | 2.6 | 0.00 | 0.00 | 0.00 | 77 | 1014.7 |
| 20260905225925 | 68 | 146 | 0.0 | 0.0 | 0.00 | 0.00 | 0.00 | 77 | 1014.7 |
| 20260905225420 | 68 | 138 | 0.0 | 0.0 | 0.00 | 0.00 | 0.00 | 77 | 1014.6 |
| 20260905224915 | 69 | 45 | 2.6 | 2.6 | 0.00 | 0.00 | 0.00 | 76 | 1014.5 |
| 20260905224411 | 69 | 179 | 0.9 | 0.9 | 0.00 | 0.00 | 0.00 | 76 | 1014.3 |
| 20260905223905 | 69 | 86 | 1.7 | 1.7 | 0.00 | 0.00 | 0.00 | 76 | 1014.6 |
| 20260905223403 | 69 | 229 | 0.9 | 1.7 | 0.00 | 0.00 | 0.00 | 75 | 1014.5 |
| 20260905222858 | 69 | 117 | 0.0 | 0.9 | 0.00 | 0.00 | 0.00 | 75 | 1014.5 |
| 20260905222356 | 69 | 87 | 1.7 | 1.7 | 0.00 | 0.00 | 0.00 | 74 | 1014.7 |
| 20260905221852 | 69 | 142 | 0.0 | 0.9 | 0.00 | 0.00 | 0.00 | 74 | 1014.6 |
| 20260905221349 | 70 | 69 | 1.7 | 1.7 | 0.00 | 0.00 | 0.00 | 73 | 1014.5 |
| 20260905220839 | 70 | 235 | 0.9 | 1.7 | 0.00 | 0.00 | 0.00 | 72 | 1014.3 |
| 20260905220335 | 70 | 173 | 0.9 | 0.9 | 0.00 | 0.00 | 0.00 | 72 | 1014.1 |
| 20260905215834 | 70 | 329 | 2.6 | 2.6 | 0.00 | 0.00 | 0.00 | 72 | 1014.2 |
| 20260905215330 | 71 | 315 | 3.5 | 4.3 | 0.00 | 0.00 | 0.00 | 71 | 1014.1 |
| 20260905214826 | 71 | 30 | 2.6 | 2.6 | 0.00 | 0.00 | 0.00 | 70 | 1014.0 |
| 20260905214321 | 71 | 72 | 0.9 | 0.9 | 0.00 | 0.00 | 0.00 | 70 | 1013.9 |
| 20260905213816 | 72 | 26 | 1.7 | 1.7 | 0.00 | 0.00 | 0.00 | 69 | 1013.8 |
| 20260905213312 | 73 | 142 | 0.9 | 0.9 | 0.00 | 0.00 | 0.00 | 70 | 1013.7 |
| 20260905212807 | 73 | 156 | 0.0 | 0.0 | 0.00 | 0.00 | 0.00 | 71 | 1013.8 |
| 20260905212307 | 73 | 297 | 4.3 | 5.2 | 0.00 | 0.00 | 0.00 | 68 | 1013.8 |
| 20260905211801 | 72 | 199 | 0.9 | 0.9 | 0.00 | 0.00 | 0.00 | 69 | 1013.8 |
| 20260905211256 | 73 | 206 | 2.6 | 2.6 | 0.00 | 0.00 | 0.00 | 69 | 1013.8 |
| 20260905210754 | 72 | 258 | 0.9 | 0.9 | 0.00 | 0.00 | 0.00 | 69 | 1013.9 |
| 20260905210253 | 73 | 233 | 0.9 | 1.7 | 0.00 | 0.00 | 0.00 | 69 | 1013.6 |
| 20260905205751 | 72 | 225 | 1.7 | 1.7 | 0.00 | 0.00 | 0.00 | 68 | 1013.8 |
| 20260905205246 | 72 | 136 | 0.9 | 0.9 | 0.00 | 0.00 | 0.00 | 70 | 1013.5 |
| 20260905204746 | 73 | 164 | 0.9 | 0.9 | 0.00 | 0.00 | 0.00 | 70 | 1013.6 |
| 20260905204242 | 73 | 291 | 1.7 | 1.7 | 0.00 | 0.00 | 0.00 | 69 | 1013.7 |
| 20260905203741 | 73 | 196 | 0.0 | 0.9 | 0.00 | 0.00 | 0.00 | 69 | 1013.6 |
| 20260905203237 | 72 | 357 | 0.9 | 2.6 | 0.00 | 0.00 | 0.00 | 69 | 1013.6 |
| 20260905202732 | 72 | 195 | 0.0 | 0.9 | 0.00 | 0.00 | 0.00 | 69 | 1013.9 |
| 20260905202227 | 72 | 185 | 0.0 | 0.9 | 0.00 | 0.00 | 0.00 | 70 | 1013.8 |
| 20260905201722 | 72 | 130 | 0.9 | 0.9 | 0.00 | 0.00 | 0.00 | 70 | 1013.9 |
| 20260905201217 | 72 | 351 | 2.6 | 2.6 | 0.00 | 0.00 | 0.00 | 69 | 1013.6 |
| 20260905200712 | 73 | 45 | 1.7 | 1.7 | 0.00 | 0.00 | 0.00 | 67 | 1013.6 |
| 20260905200208 | 73 | 173 | 0.9 | 0.9 | 0.00 | 0.00 | 0.00 | 67 | 1013.7 |
| 20260905195706 | 73 | 171 | 0.9 | 0.9 | 0.00 | 0.00 | 0.00 | 68 | 1013.8 |
| 20260905195200 | 73 | 161 | 0.0 | 0.0 | 0.00 | 0.00 | 0.00 | 66 | 1013.7 |
| 20260905194650 | 73 | 198 | 0.9 | 0.9 | 0.00 | 0.00 | 0.00 | 68 | 1013.4 |
| 20260905194149 | 72 | 174 | 0.0 | 0.9 | 0.00 | 0.00 | 0.00 | 68 | 1013.9 |
| 20260905193638 | 71 | 169 | 0.0 | 0.0 | 0.00 | 0.00 | 0.00 | 70 | 1013.7 |
| 20260905193133 | 71 | 147 | 0.9 | 0.9 | 0.00 | 0.00 | 0.00 | 69 | 1013.8 |
| 20260905192629 | 72 | 317 | 3.5 | 4.3 | 0.00 | 0.00 | 0.00 | 67 | 1013.8 |
| 20260905192125 | 73 | 0 | 1.7 | 2.6 | 0.00 | 0.00 | 0.00 | 65 | 1013.5 |
| 20260905191625 | 73 | 238 | 1.7 | 2.6 | 0.00 | 0.00 | 0.00 | 65 | 1013.7 |
| 20260905191123 | 74 | 193 | 0.9 | 0.9 | 0.00 | 0.00 | 0.00 | 68 | 1013.8 |
| 20260905190621 | 73 | 131 | 0.0 | 0.0 | 0.00 | 0.00 | 0.00 | 66 | 1013.7 |